This is the latest recevied weather packets stored in our database for station/object BG5HLN-13. If no packets are shown the sender has not sent any weather packets the latest 10 day(s).
| Time | Temp. | Humidity | Pressure | Rain* | Wind** | Luminosity | Snow |
|---|---|---|---|---|---|---|---|
| 1777529659 | 21.67° C | 55% | 1017 hPa | 0 mm | - | - | - |
| 1777529060 | 21.11° C | 55% | 1017.1 hPa | 0 mm | - | - | - |
| 1777528463 | 21.11° C | 56% | 1017.2 hPa | 0 mm | - | - | - |
| 1777528459 | 21.11° C | 56% | 1017.1 hPa | 0 mm | - | - | - |
| 1777527860 | 20.56° C | 56% | 1017.3 hPa | 0 mm | - | - | - |
| 1777527259 | 20.56° C | 55% | 1017.4 hPa | 0 mm | - | - | - |
| 1777526659 | 20.56° C | 53% | 1017.6 hPa | 0 mm | - | - | - |
| 1777526060 | 20.56° C | 55% | 1017.8 hPa | 0 mm | - | - | - |
| 1777525459 | 20.56° C | 55% | 1017.8 hPa | 0 mm | - | - | - |
| 1777524860 | 20.56° C | 60% | 1018 hPa | 0 mm | - | - | - |
| 1777524259 | 20.56° C | 59% | 1018.1 hPa | 0 mm | - | - | - |
| 1777523659 | 21.11° C | 56% | 1018 hPa | 0 mm | - | - | - |
| 1777523062 | 21.11° C | 57% | 1018.1 hPa | 0 mm | - | - | - |
| 1777523060 | 21.11° C | 57% | 1018.1 hPa | 0 mm | - | - | - |
| 1777522458 | 20° C | 57% | 1018.4 hPa | 0 mm | - | - | - |
| 1777521859 | 20° C | 59% | 1018.5 hPa | 0 mm | - | - | - |
| 1777521261 | 20° C | 63% | 1018.6 hPa | 0 mm | - | - | - |
| 1777521258 | 20° C | 63% | 1018.6 hPa | 0 mm | - | - | - |
| 1777520659 | 19.44° C | 63% | 1018.6 hPa | 0 mm | - | - | - |
| 1777520059 | 20° C | 65% | 1018.7 hPa | 0 mm | - | - | - |
| 1777519122 | 19.44° C | 67% | 1018.6 hPa | 0 mm | - | - | - |
| 1777518523 | 18.89° C | 68% | 1018.7 hPa | 0 mm | - | - | - |
| 1777517926 | 18.33° C | 66% | 1018.7 hPa | 0 mm | - | - | - |
| 1777517922 | 18.33° C | 66% | 1018.8 hPa | 0 mm | - | - | - |
| 1777517322 | 18.33° C | 67% | 1018.9 hPa | 0 mm | - | - | - |
* Rain latest hour (hover to see other rain measurements)
** Current wind speed in m/s (hover to see current wind gust speed)